INTELSAT 19 (IS-19)

Last updated on Fri Dec 19 2025 00:02:50 GMT+0000 (Coordinated Universal Time)

1 38356U 12030A 25352.58688814 -.00000031 00000+0 00000+0 0 9999 2 38356 0.0103 338.5215 0002706 285.7195 200.4886 1.00270444 48642
UTC large
Height (km)
Speed (km/s)
/
Latitude / Longitude
Inclination (degrees)
Orbital Period (minutes)
Azimuth
Elevation
Range (km)
Doppler Factor

Next 0 passes for location: London (51.5072 / 0.1276)

Sorry there are no passes over London.